CZ-6 R/B

Satellite information

Favourite Embed

Satellite Type and Status

ROCKET BODYIN ORBIT

Key statistics

Satellite CZ-6 R/B at a glance.

Uptime

1520

Days in orbit

Revolutions

≈ 14.4

Per day

Orbit

LEO

Low Earth Orbit

Inclination

45.0

Latest

Satellite identification and parameters

Extended collection of information and parameters for CZ-6 R/B.

Object identification

Identified? True

Debris? False

Object name: CZ-6 R/B

International designator: 2021-064F

Object number (NORAD): 49023

Object ID (CCSDS): 49023

Country: PEOPLES REPUBLIC OF CHINA (PRC)

Current information (Y/N): Y

RCS size: LARGE

Orbital parameters

Period: 99.995 minutes

Inclination: 44.9982 deg

SMA: 7136.405 km

Apoapsis: 880.754 km

Periapsis: 635.787 km

RAAN: 69.0355 deg

Eccentricy: 0.0171632

Argument of periapsis: 90.3638 deg

Mean anomaly: 271.6879 deg

Mean motion: 14.4006971 rev/day

Mean motion (dot): 0.0000053 rev/day2

B* drag term: 0.0001842592 1/REarth

Two-line elements (TLE)

Creation date: Sept. 6, 2025, 2:09 a.m.

Reference frame: TEME

Reference center: EARTH

Epoch: Sept. 5, 2025, 9:01 p.m. UTC

TLE line 0: 0 CZ-6 R/B

TLE line 1: 1 49023U 21064F 25248.87599778 .00000530 00000-0 18426-3 0 9994

TLE line 2: 2 49023 44.9982 69.0355 0171632 90.3638 271.6879 14.40069710218893

Live tracking on map

Real-time ground track for satellite CZ-6 R/B.

In-orbit conjunctions

A list of the most updated potential collisions computed for object CZ-6 R/B.

Target Orbit TCA Probability of collision Miss distance Type
THORAD AGENA D DEB LEO 2025-06-04 04:43:09 0.0001118186 856.0 (m) DEBRIS
CZ-2D DEB SSO 2025-02-21 10:09:56 0.0001103727 637.0 (m) DEBRIS
CZ-4B R/B SSO 2025-02-20 20:12:05 0.0005641138 360.0 (m) ROCKET BODY
PEGASUS DEB LEO 2025-02-07 21:31:25 0.0001495763 238.0 (m) DEBRIS
CZ-6A DEB LEO 2024-10-25 00:36:25 0.0006002461 530.0 (m) DEBRIS

Associated space launch

The Ningxin-1 satellites (also called Zhongzi) are a series of Chinese commercial remote sensing satellite owned by Ningxia Jingui Information Technology Co. Ltd. The satellites were built by DFH Satellite Co. Ltd of CAST. They have been reported to be a commercial operated global EM spectrum signal monitoring satellite system (SIGINT).

CZ-6 R/B was lifted into orbit during the mission ‘Long March 6 | Zhongzi Group 02 (Ningxia-1-02)’, on board a Long March 6 space rocket.

The launch took place on July 9, 2021, 11:59 a.m. from Launch Complex 16.

For more information about the launch, click the button.

Launch to space Long March 6 | Zhongzi Group 02 (Ningxia-1-02)
Long March 6 | Zhongzi Group 02 (Ningxia-1-02)

Agency: N/A

Status: Launch Successful

Launch date: July 9, 2021, 11:59 a.m. UTC

Rocket: Long March 6

Launch pad: Launch Complex 16

Location: Taiyuan Satellite Launch Center, People's Republic of China

...

Latest news about this satellite

News about space launch
China’s Long March 6 launches five satellites

China successfully launched a Chang Zheng 6 rocket from LC-16 at the Taiyuan Satellite Launch Center at 11:59 UTC (7:59 PM Beijing time) on Friday July 9.  This launch is the sixth launch of the Chang Zheng 6 (CZ-6), also known as the Long March 6, and th...


Newsletter sign-up

Weekly statistics, charts and insights to help you stay on top of the space industry.